When you browse on this site, cookies collect data to enhance your experience and personalize the content and advertising you see.
Visit our Privacy Policy to learn more. By continuing to use the site, you agree to this use of cookies and data.
  • In Romania
  • List of Countries
  • For 7 days
  • Water Temperature
  • Satellite Maps
  • Weather Map
  • Weather Widgets
  • user-avatar
    Login

    Hourly Weather Arnara

    Today, 18 July, Thursday

    Time Temperature Precipitation Wind Pressure Humidity
    00:00 +21°C° 0 mm 1 mps 742 mmHg 67%
    01:00 +21°C° 0 mm 1 mps 742 mmHg 69%
    02:00 +21°C° 0 mm 1 mps 742 mmHg 70%
    03:00 +21°C° 0 mm 1 mps 742 mmHg 70%
    04:00 +18°C° 0 mm 0 mps 741 mmHg 70%
    05:00 +20°C° 0 mm 0 mps 742 mmHg 67%
    06:00 +21°C° 0 mm 0 mps 742 mmHg 63%
    07:00 +23°C° 0 mm 0 mps 742 mmHg 57%
    08:00 +25°C° 0 mm 0 mps 742 mmHg 53%
    09:00 +28°C° 0 mm 1 mps 743 mmHg 48%
    10:00 +30°C° 0 mm 1 mps 743 mmHg 44%
    11:00 +30°C° 0 mm 2 mps 743 mmHg 42%
    12:00 +31°C° 0 mm 2 mps 743 mmHg 41%
    13:00 +31°C° 0 mm 3 mps 743 mmHg 39%
    14:00 +31°C° 0.1 mm 3 mps 743 mmHg 43%
    15:00 +30°C° 0.1 mm 3 mps 743 mmHg 46%
    16:00 +29°C° 0.1 mm 3 mps 743 mmHg 50%
    17:00 +28°C° 0.2 mm 2 mps 743 mmHg 54%
    18:00 +27°C° 0.2 mm 2 mps 743 mmHg 59%
    19:00 +25°C° 0.2 mm 1 mps 743 mmHg 64%
    20:00 +24°C° 0 mm 1 mps 743 mmHg 68%
    21:00 +23°C° 0 mm 1 mps 744 mmHg 72%
    22:00 +22°C° 0 mm 1 mps 744 mmHg 76%
    23:00 +21°C° 0 mm 1 mps 744 mmHg 76%

    Tomorrow, 19 July, Friday

    Time Temperature Precipitation Wind Pressure Humidity
    00:00 +19°C° 0 mm 0 mps 744 mmHg 76%
    01:00 +19°C° 0 mm 0 mps 744 mmHg 77%
    02:00 +19°C° 0 mm 0 mps 744 mmHg 77%
    03:00 +20°C° 0 mm 1 mps 744 mmHg 77%
    04:00 +20°C° 0 mm 1 mps 744 mmHg 77%
    05:00 +20°C° 0 mm 0 mps 744 mmHg 72%
    06:00 +21°C° 0 mm 0 mps 745 mmHg 67%
    07:00 +23°C° 0 mm 0 mps 745 mmHg 62%
    08:00 +25°C° 0 mm 0 mps 745 mmHg 57%
    09:00 +29°C° 0 mm 1 mps 745 mmHg 51%
    10:00 +30°C° 0 mm 1 mps 746 mmHg 46%
    11:00 +31°C° 0.1 mm 1 mps 746 mmHg 44%
    12:00 +32°C° 0.1 mm 1 mps 746 mmHg 42%
    13:00 +34°C° 0.1 mm 2 mps 746 mmHg 40%
    14:00 +32°C° 0.1 mm 2 mps 746 mmHg 43%
    15:00 +31°C° 0.1 mm 2 mps 745 mmHg 47%
    16:00 +30°C° 0.1 mm 3 mps 745 mmHg 50%
    17:00 +29°C° 0.4 mm 2 mps 745 mmHg 57%
    18:00 +27°C° 0.4 mm 1 mps 745 mmHg 64%
    19:00 +26°C° 0.4 mm 1 mps 746 mmHg 71%
    20:00 +25°C° 0.1 mm 1 mps 746 mmHg 73%
    21:00 +24°C° 0.1 mm 1 mps 746 mmHg 75%
    22:00 +23°C° 0.1 mm 1 mps 746 mmHg 77%
    23:00 +23°C° 0 mm 1 mps 746 mmHg 77%

    Day after tomorrow, 20 July, Saturday

    Time Temperature Precipitation Wind Pressure Humidity
    00:00 +22°C° 0 mm 1 mps 746 mmHg 77%
    01:00 +22°C° 0 mm 1 mps 746 mmHg 77%
    02:00 +22°C° 0 mm 1 mps 746 mmHg 77%
    03:00 +22°C° 0 mm 1 mps 746 mmHg 76%
    04:00 +21°C° 0 mm 1 mps 746 mmHg 76%
    05:00 +23°C° 0 mm 1 mps 746 mmHg 72%
    06:00 +22°C° 0 mm 0 mps 747 mmHg 68%
    07:00 +24°C° 0 mm 0 mps 747 mmHg 63%
    08:00 +26°C° 0 mm 0 mps 747 mmHg 57%
    09:00 +30°C° 0 mm 1 mps 747 mmHg 50%
    10:00 +32°C° 0 mm 1 mps 748 mmHg 43%
    11:00 +33°C° 0 mm 1 mps 748 mmHg 42%
    12:00 +34°C° 0 mm 2 mps 748 mmHg 40%
    13:00 +35°C° 0 mm 2 mps 748 mmHg 39%
    14:00 +34°C° 0 mm 2 mps 748 mmHg 42%
    15:00 +32°C° 0 mm 2 mps 747 mmHg 44%
    16:00 +32°C° 0 mm 2 mps 747 mmHg 46%
    17:00 +31°C° 0 mm 2 mps 747 mmHg 50%
    18:00 +29°C° 0 mm 1 mps 747 mmHg 55%
    19:00 +28°C° 0 mm 1 mps 748 mmHg 59%
    20:00 +27°C° 0 mm 1 mps 748 mmHg 61%
    21:00 +26°C° 0 mm 1 mps 748 mmHg 62%
    22:00 +25°C° 0 mm 1 mps 748 mmHg 64%
    23:00 +24°C° 0 mm 1 mps 748 mmHg 65%

    21 July, Sunday

    Time Temperature Precipitation Wind Pressure Humidity
    00:00 +24°C° 0 mm 1 mps 748 mmHg 65%
    01:00 +24°C° 0 mm 1 mps 748 mmHg 65%
    02:00 +23°C° 0 mm 1 mps 748 mmHg 66%
    03:00 +23°C° 0 mm 1 mps 748 mmHg 66%
    04:00 +23°C° 0 mm 1 mps 748 mmHg 66%
    05:00 +25°C° 0 mm 1 mps 748 mmHg 63%
    06:00 +26°C° 0 mm 1 mps 748 mmHg 59%
    07:00 +28°C° 0 mm 1 mps 749 mmHg 55%
    08:00 +30°C° 0 mm 1 mps 749 mmHg 49%
    09:00 +32°C° 0 mm 1 mps 749 mmHg 43%
    10:00 +34°C° 0 mm 1 mps 749 mmHg 38%
    11:00 +35°C° 0 mm 1 mps 749 mmHg 36%
    12:00 +35°C° 0 mm 1 mps 749 mmHg 34%
    13:00 +37°C° 0 mm 2 mps 749 mmHg 32%
    14:00 +37°C° 0 mm 2 mps 749 mmHg 33%
    15:00 +36°C° 0 mm 2 mps 749 mmHg 34%
    16:00 +36°C° 0 mm 3 mps 749 mmHg 34%
    17:00 +34°C° 0 mm 2 mps 749 mmHg 39%
    18:00 +31°C° 0 mm 2 mps 749 mmHg 44%
    19:00 +30°C° 0 mm 2 mps 748 mmHg 48%
    20:00 +29°C° 0 mm 1 mps 749 mmHg 50%
    21:00 +27°C° 0 mm 1 mps 749 mmHg 51%
    22:00 +26°C° 0 mm 1 mps 749 mmHg 52%
    23:00 +26°C° 0 mm 1 mps 749 mmHg 52%

    22 July, Monday

    Time Temperature Precipitation Wind Pressure Humidity
    00:00 +25°C° 0 mm 1 mps 749 mmHg 52%
    01:00 +25°C° 0 mm 1 mps 749 mmHg 52%
    02:00 +25°C° 0 mm 1 mps 749 mmHg 52%
    03:00 +25°C° 0 mm 1 mps 748 mmHg 53%
    04:00 +24°C° 0 mm 1 mps 748 mmHg 54%
    05:00 +26°C° 0 mm 1 mps 749 mmHg 53%
    06:00 +27°C° 0 mm 1 mps 749 mmHg 51%
    07:00 +27°C° 0 mm 0 mps 749 mmHg 49%
    08:00 +29°C° 0 mm 0 mps 749 mmHg 44%
    09:00 +33°C° 0 mm 1 mps 749 mmHg 39%
    10:00 +36°C° 0 mm 1 mps 750 mmHg 33%
    11:00 +36°C° 0 mm 1 mps 749 mmHg 32%
    12:00 +37°C° 0 mm 1 mps 749 mmHg 30%
    13:00 +37°C° 0 mm 1 mps 749 mmHg 29%
    14:00 +38°C° 0 mm 2 mps 749 mmHg 29%
    15:00 +38°C° 0 mm 2 mps 749 mmHg 29%
    16:00 +37°C° 0 mm 3 mps 748 mmHg 29%
    17:00 +36°C° 0 mm 2 mps 748 mmHg 32%
    18:00 +34°C° 0 mm 2 mps 748 mmHg 36%
    19:00 +31°C° 0 mm 1 mps 748 mmHg 39%
    20:00 +30°C° 0 mm 1 mps 748 mmHg 41%
    21:00 +28°C° 0 mm 1 mps 748 mmHg 43%
    22:00 +27°C° 0 mm 1 mps 748 mmHg 44%
    23:00 +27°C° 0 mm 1 mps 748 mmHg 46%

    23 July, Tuesday

    Time Temperature Precipitation Wind Pressure Humidity
    00:00 +26°C° 0 mm 1 mps 748 mmHg 47%
    01:00 +26°C° 0 mm 1 mps 748 mmHg 48%
    02:00 +25°C° 0 mm 1 mps 747 mmHg 50%
    03:00 +25°C° 0 mm 1 mps 747 mmHg 52%
    04:00 +25°C° 0 mm 1 mps 747 mmHg 54%
    05:00 +26°C° 0 mm 1 mps 747 mmHg 52%
    06:00 +28°C° 0 mm 1 mps 747 mmHg 50%
    07:00 +27°C° 0 mm 0 mps 747 mmHg 49%
    08:00 +32°C° 0 mm 1 mps 747 mmHg 44%
    09:00 +34°C° 0 mm 1 mps 747 mmHg 38%
    10:00 +36°C° 0 mm 1 mps 747 mmHg 33%
    11:00 +37°C° 0 mm 1 mps 747 mmHg 31%
    12:00 +37°C° 0 mm 1 mps 747 mmHg 29%
    13:00 +39°C° 0 mm 2 mps 747 mmHg 27%
    14:00 +38°C° 0 mm 2 mps 746 mmHg 28%
    15:00 +38°C° 0 mm 2 mps 746 mmHg 29%
    16:00 +37°C° 0 mm 2 mps 746 mmHg 29%
    17:00 +35°C° 0 mm 2 mps 745 mmHg 34%
    18:00 +34°C° 0 mm 2 mps 745 mmHg 39%
    19:00 +31°C° 0 mm 1 mps 745 mmHg 44%
    20:00 +30°C° 0 mm 1 mps 745 mmHg 47%
    21:00 +29°C° 0 mm 1 mps 745 mmHg 51%
    22:00 +27°C° 0 mm 1 mps 745 mmHg 54%
    23:00 +27°C° 0 mm 1 mps 745 mmHg 55%
    Show more